This is the latest recevied weather packets stored in our database for station/object RN1M-13. If no packets are shown the sender has not sent any weather packets the latest 1 day(s).
| Time | Temp. | Humidity | Pressure | Rain* | Wind** | Luminosity | Snow |
|---|---|---|---|---|---|---|---|
| 1777892415 | 20° C | 97% | 1001.9 hPa | - | - | - | - |
| 1777891524 | 20° C | 95% | 1002 hPa | - | - | - | - |
| 1777890624 | 20° C | 98% | 1002.3 hPa | - | - | - | - |
| 1777889724 | 20° C | 92% | 1002.5 hPa | - | - | - | - |
| 1777888824 | 20° C | 91% | 1002.6 hPa | - | - | - | - |
| 1777887924 | 19.44° C | 97% | 1002.8 hPa | - | - | - | - |
| 1777887024 | 19.44° C | 100% | 1002.9 hPa | - | - | - | - |
| 1777886124 | 18.33° C | 100% | 1003 hPa | - | - | - | - |
| 1777885224 | 18.33° C | 97% | 1003 hPa | - | - | - | - |
| 1777884324 | 20° C | 90% | 1003 hPa | - | - | - | - |
| 1777883424 | 19.44° C | 100% | 1003.1 hPa | - | - | - | - |
| 1777882523 | 18.33° C | 100% | 1003.2 hPa | - | - | - | - |
| 1777881625 | 17.22° C | 100% | 1003.5 hPa | - | - | - | - |
| 1777880733 | 18.33° C | 100% | 1003.5 hPa | - | - | - | - |
| 1777879833 | 18.89° C | 100% | 1003.5 hPa | - | - | - | - |
| 1777878933 | 17.78° C | 100% | 1003.8 hPa | - | - | - | - |
| 1777878033 | 17.78° C | 100% | 1004.1 hPa | - | - | - | - |
| 1777877133 | 16.11° C | 100% | 1004.3 hPa | - | - | - | - |
| 1777876233 | 15.56° C | 100% | 1004.3 hPa | - | - | - | - |
| 1777875333 | 15.56° C | 100% | 1004.4 hPa | - | - | - | - |
| 1777874433 | 15.56° C | 100% | 1004.4 hPa | - | - | - | - |
| 1777873541 | 15.56° C | 100% | 1004.6 hPa | - | - | - | - |
| 1777872633 | 15.56° C | 100% | 1004.6 hPa | - | - | - | - |
| 1777871733 | 14.44° C | 100% | 1004.6 hPa | - | - | - | - |
| 1777870835 | 15° C | 100% | 1004.7 hPa | - | - | - | - |
* Rain since midnight (hover to see other rain measurements)
** Current wind speed in m/s (hover to see current wind gust speed)